This is the latest recevied weather packets stored in our database for station/object KB9HUO. If no packets are shown the sender has not sent any weather packets the latest 10 day(s).
| Time | Temp. | Humidity | Pressure | Rain* | Wind** | Luminosity | Snow |
|---|---|---|---|---|---|---|---|
| 1778117666 | 11.11° C | 69% | 1015.8 hPa | 0 mm | - | 0 W/m² | - |
| 1778117364 | 11.67° C | 67% | 1015.6 hPa | 0 mm | - | 0 W/m² | - |
| 1778117060 | 11.67° C | 64% | 1015.5 hPa | 0 mm | - | 0 W/m² | - |
| 1778116757 | 11.67° C | 65% | 1015.7 hPa | 0 mm | - | 0 W/m² | - |
| 1778116454 | 11.67° C | 64% | 1015.6 hPa | 0 mm | - | 0 W/m² | - |
| 1778116153 | 11.67° C | 64% | 1015.6 hPa | 0 mm | - | 0 W/m² | - |
| 1778115849 | 12.22° C | 65% | 1015.6 hPa | 0 mm | - | 0 W/m² | - |
| 1778115546 | 12.22° C | 64% | 1015.5 hPa | 0 mm | - | 0 W/m² | - |
| 1778115243 | 12.22° C | 63% | 1015.6 hPa | 0 mm | - | 0 W/m² | - |
| 1778114940 | 12.78° C | 63% | 1015.4 hPa | 0 mm | - | 1 W/m² | - |
| 1778114637 | 12.78° C | 62% | 1015.5 hPa | 0 mm | - | 2 W/m² | - |
| 1778114334 | 12.78° C | 61% | 1015.3 hPa | 0 mm | - | 3 W/m² | - |
| 1778114029 | 13.33° C | 60% | 1015.3 hPa | 0 mm | - | 4 W/m² | - |
| 1778113724 | 13.33° C | 59% | 1015.2 hPa | 0 mm | - | 6 W/m² | - |
| 1778113421 | 13.89° C | 58% | 1015.4 hPa | 0 mm | - | 9 W/m² | - |
| 1778113118 | 13.89° C | 57% | 1015.2 hPa | 0 mm | - | 10 W/m² | - |
| 1778112815 | 13.89° C | 56% | 1015.1 hPa | 0 mm | - | 12 W/m² | - |
| 1778112511 | 13.89° C | 56% | 1015.1 hPa | 0 mm | - | 13 W/m² | - |
| 1778112207 | 14.44° C | 56% | 1015.1 hPa | 0 mm | - | 16 W/m² | - |
| 1778111904 | 15° C | 55% | 1015.1 hPa | 0 mm | - | 19 W/m² | - |
| 1778111600 | 15° C | 54% | 1014.9 hPa | 0 mm | - | 34 W/m² | - |
| 1778111296 | 15° C | 55% | 1015 hPa | 0 mm | - | 35 W/m² | - |
| 1778110994 | 15° C | 55% | 1014.9 hPa | 0 mm | - | 31 W/m² | - |
| 1778110692 | 15° C | 53% | 1014.8 hPa | 0 mm | - | 36 W/m² | - |
| 1778110387 | 15° C | 53% | 1015 hPa | 0 mm | - | 43 W/m² | - |
* Rain latest hour (hover to see other rain measurements)
** Current wind speed in m/s (hover to see current wind gust speed)